DW1814 Weather Reports


time (UTC)temp
C
wind
direction
speed
KPH
gust
KPH
rain 1hr
cm
rain 24hr
cm
rain mn
cm
humidity
%
barometer
mb
20260906113655 18 52 0.0 3.2 0.00 0.00 0.00 99 1017.7
20260906113155 18 40 0.0 3.2 0.00 0.00 0.00 99 1017.7
20260906112654 18 45 0.0 3.2 0.00 0.00 0.00 99 1017.7
20260906112152 18 33 1.6 3.2 0.00 0.00 0.00 99 1017.4
20260906111651 18 69 0.0 1.6 0.00 0.00 0.00 99 1017.6
20260906111145 18 72 1.6 3.2 0.00 0.00 0.00 99 1017.7
20260906110641 18 46 0.0 3.2 0.00 0.00 0.00 99 1017.5
20260906110136 18 85 3.2 3.2 0.00 0.00 0.00 99 1017.4
20260906105629 18 26 0.0 3.2 0.00 0.00 0.00 99 1017.4
20260906105126 18 22 0.0 3.2 0.00 0.00 0.00 99 1017.4
20260906104625 18 17 3.2 3.2 0.00 0.00 0.00 99 1017.3
20260906104119 18 14 0.0 3.2 0.00 0.00 0.00 99 1017.3
20260906103617 17 359 1.6 4.8 0.00 0.00 0.00 99 1017.4
20260906103114 17 35 3.2 3.2 0.00 0.00 0.00 99 1017.4
20260906102613 17 54 1.6 3.2 0.00 0.00 0.00 99 1017.3
20260906102108 17 38 1.6 3.2 0.00 0.00 0.00 99 1017.2
20260906101609 17 51 3.2 3.2 0.00 0.00 0.00 99 1017.0
20260906101108 17 56 1.6 3.2 0.00 0.00 0.00 99 1016.9
20260906100604 17 51 0.0 3.2 0.00 0.00 0.00 99 1017.2
20260906100059 17 49 0.0 3.2 0.00 0.00 0.00 99 1017.3
20260906095559 17 40 0.0 1.6 0.00 0.00 0.00 99 1017.2
20260906095054 18 60 1.6 1.6 0.00 0.00 0.00 99 1017.2
20260906094553 18 37 1.6 1.6 0.00 0.00 0.00 99 1017.1
20260906094049 18 55 0.0 3.2 0.00 0.00 0.00 99 1017.1
20260906093544 18 25 0.0 1.6 0.00 0.00 0.00 99 1016.9
20260906093040 18 46 0.0 3.2 0.00 0.00 0.00 99 1016.9
20260906092540 18 50 1.6 3.2 0.00 0.00 0.00 99 1017.1
20260906092035 18 34 1.6 1.6 0.00 0.00 0.00 99 1016.9
20260906091531 18 19 3.2 3.2 0.00 0.00 0.00 99 1016.8
20260906091028 18 35 3.2 3.2 0.00 0.00 0.00 98 1017.0
20260906090527 18 37 0.0 1.6 0.00 0.00 0.00 98 1017.0
20260906090023 18 32 1.6 3.2 0.00 0.00 0.00 98 1017.0
20260906085521 18 31 3.2 4.8 0.00 0.00 0.00 98 1016.8
20260906085021 18 51 1.6 3.2 0.00 0.00 0.00 98 1016.6
20260906084521 18 39 3.2 3.2 0.00 0.00 0.00 98 1016.8
20260906084020 18 41 1.6 3.2 0.00 0.00 0.00 98 1017.0
20260906083516 18 32 3.2 3.2 0.00 0.00 0.00 98 1016.9
20260906083015 18 51 0.0 1.6 0.00 0.00 0.00 98 1016.8
20260906082510 18 61 1.6 3.2 0.00 0.00 0.00 98 1016.7
20260906082006 18 48 0.0 1.6 0.00 0.00 0.00 98 1016.7
20260906081502 18 40 0.0 3.2 0.00 0.00 0.00 98 1016.9
20260906080957 18 37 0.0 1.6 0.00 0.00 0.00 98 1016.9
20260906080454 18 53 0.0 1.6 0.00 0.00 0.00 98 1016.8
20260906075954 18 69 1.6 1.6 0.00 0.00 0.00 97 1016.8
20260906075449 18 53 0.0 1.6 0.00 0.00 0.00 97 1016.7
20260906074945 18 35 1.6 3.2 0.00 0.00 0.00 97 1016.9
20260906074444 18 54 1.6 3.2 0.00 0.00 0.00 97 1016.9
20260906073943 18 41 1.6 3.2 0.00 0.00 0.00 97 1016.8
20260906073438 18 44 1.6 3.2 0.00 0.00 0.00 97 1016.7
20260906072934 18 40 1.6 1.6 0.00 0.00 0.00 97 1016.8
20260906072429 18 55 1.6 3.2 0.00 0.00 0.00 97 1016.9
20260906071925 19 48 1.6 3.2 0.00 0.00 0.00 97 1016.9
20260906071421 19 50 1.6 3.2 0.00 0.00 0.00 96 1016.9
20260906070917 19 53 0.0 1.6 0.00 0.00 0.00 96 1016.8
20260906070413 19 67 0.0 1.6 0.00 0.00 0.00 96 1017.0
20260906065908 19 43 0.0 1.6 0.00 0.00 0.00 96 1017.1
20260906065402 19 37 3.2 3.2 0.00 0.00 0.00 96 1017.0
20260906064858 20 34 1.6 3.2 0.00 0.00 0.00 96 1016.8
20260906064355 20 30 3.2 3.2 0.00 0.00 0.00 96 1016.8
20260906063854 20 10 3.2 3.2 0.00 0.00 0.00 96 1016.9
20260906063349 20 14 1.6 3.2 0.00 0.00 0.00 96 1016.9
20260906062844 20 35 3.2 4.8 0.00 0.00 0.00 95 1017.1
20260906062344 20 11 1.6 3.2 0.00 0.00 0.00 95 1017.2
20260906061839 20 17 3.2 3.2 0.00 0.00 0.00 95 1016.9
20260906061336 20 346 4.8 6.4 0.00 0.00 0.00 95 1016.7
20260906060836 20 23 6.4 6.4 0.00 0.00 0.00 94 1017.0
20260906060334 20 17 3.2 4.8 0.00 0.00 0.00 94 1017.0
20260906055830 20 16 3.2 4.8 0.00 0.00 0.00 94 1017.0
20260906055325 20 8 3.2 4.8 0.00 0.00 0.00 94 1017.0
20260906054820 20 20 3.2 4.8 0.00 0.00 0.00 94 1017.2
20260906054315 20 26 3.2 3.2 0.00 0.00 0.00 94 1017.1
20260906053812 20 11 4.8 4.8 0.00 0.00 0.00 94 1017.1
20260906053307 20 30 3.2 3.2 0.00 0.00 0.00 94 1017.1
20260906052802 20 26 1.6 3.2 0.00 0.00 0.00 93 1016.9
20260906052258 20 31 3.2 4.8 0.00 0.00 0.00 94 1016.9
20260906051755 20 19 3.2 4.8 0.00 0.00 0.00 94 1016.6
20260906051254 20 27 3.2 3.2 0.00 0.00 0.00 93 1016.6
20260906050750 20 23 3.2 6.4 0.00 0.00 0.00 93 1016.7
20260906050245 20 23 3.2 4.8 0.00 0.00 0.00 93 1016.7
20260906045744 20 28 1.6 3.2 0.00 0.00 0.00 93 1016.7
20260906045239 20 10 3.2 3.2 0.00 0.00 0.00 94 1016.6
20260906044734 20 9 1.6 3.2 0.00 0.00 0.00 94 1016.6
20260906044229 20 5 1.6 4.8 0.00 0.00 0.00 94 1016.5
20260906043726 20 0 1.6 4.8 0.00 0.00 0.00 94 1016.4
20260906043221 20 41 3.2 4.8 0.00 0.00 0.00 94 1016.2
20260906042720 20 35 3.2 4.8 0.00 0.00 0.00 94 1016.4
20260906042219 20 349 3.2 3.2 0.00 0.00 0.00 93 1016.1
20260906041715 20 20 4.8 6.4 0.00 0.00 0.00 93 1016.4
20260906041210 20 17 3.2 3.2 0.00 0.00 0.00 94 1016.0
20260906040706 20 29 4.8 6.4 0.00 0.00 0.00 93 1015.9
20260906040201 20 5 3.2 6.4 0.00 0.00 0.00 93 1015.8
20260906035657 20 56 3.2 6.4 0.00 0.00 0.00 93 1015.8
20260906035152 20 17 3.2 6.4 0.00 0.00 0.00 93 1015.9
20260906034647 20 24 4.8 6.4 0.00 0.00 0.00 93 1015.7
20260906034141 20 27 6.4 6.4 0.00 0.00 0.00 93 1016.0
20260906033637 20 16 1.6 3.2 0.00 0.00 0.00 93 1015.7
20260906033131 20 24 3.2 4.8 0.00 0.00 0.00 92 1015.9
20260906032628 20 9 3.2 4.8 0.00 0.00 0.00 92 1015.7
20260906032128 20 74 3.2 4.8 0.00 0.00 0.00 92 1015.6
20260906031623 20 114 0.0 4.8 0.00 0.00 0.00 92 1015.8
20260906031119 20 8 3.2 4.8 0.00 0.00 0.00 92 1015.8
20260906030618 20 37 3.2 4.8 0.00 0.00 0.00 92 1015.7
20260906030113 20 42 3.2 6.4 0.00 0.00 0.00 92 1015.7
20260906025613 21 43 3.2 4.8 0.00 0.00 0.00 92 1015.8
20260906025111 21 53 0.0 3.2 0.00 0.00 0.00 92 1016.0
20260906024606 21 50 1.6 3.2 0.00 0.00 0.00 91 1015.7
20260906024102 21 70 1.6 4.8 0.00 0.00 0.00 91 1015.8
20260906023557 21 81 0.0 6.4 0.00 0.00 0.00 91 1015.7
20260906023051 21 67 1.6 6.4 0.00 0.00 0.00 90 1015.6
20260906022547 21 22 4.8 6.4 0.00 0.00 0.00 90 1015.4
20260906022043 21 0 3.2 4.8 0.00 0.00 0.00 90 1015.5
20260906021538 21 20 3.2 4.8 0.00 0.00 0.00 90 1015.6
20260906021037 21 63 0.0 4.8 0.00 0.00 0.00 90 1015.4
20260906020536 21 89 3.2 3.2 0.00 0.00 0.00 89 1015.6
20260906020036 21 26 3.2 3.2 0.00 0.00 0.00 89 1015.5
20260906015535 21 22 3.2 3.2 0.00 0.00 0.00 89 1015.7
20260906015035 21 354 1.6 6.4 0.00 0.00 0.00 89 1015.9
20260906014530 21 42 1.6 3.2 0.00 0.00 0.00 89 1015.9
20260906014026 21 18 3.2 6.4 0.00 0.00 0.00 90 1015.8
20260906013521 21 13 6.4 6.4 0.00 0.00 0.00 90 1015.7
20260906013017 21 350 4.8 6.4 0.00 0.00 0.00 90 1015.9
20260906012512 21 4 3.2 6.4 0.00 0.00 0.00 90 1015.5
20260906012011 21 356 3.2 4.8 0.00 0.00 0.00 90 1015.7
20260906011508 21 17 1.6 6.4 0.00 0.00 0.00 89 1016.1
20260906011008 21 338 3.2 6.4 0.00 0.00 0.00 89 1015.7
20260906010503 21 1 8.0 9.7 0.00 0.00 0.00 89 1015.9
20260906005959 21 38 4.8 6.4 0.00 0.00 0.00 89 1015.6
20260906005458 21 6 3.2 6.4 0.00 0.00 0.00 89 1015.6
20260906004957 21 347 6.4 6.4 0.00 0.00 0.00 89 1015.7
20260906004457 21 28 6.4 6.4 0.00 0.00 0.00 89 1015.4
20260906003952 21 354 3.2 3.2 0.00 0.00 0.00 89 1015.5
20260906003447 21 37 6.4 6.4 0.00 0.00 0.00 89 1015.4
20260906002937 21 341 9.7 11.3 0.00 0.00 0.00 89 1015.4
20260906002436 21 69 6.4 8.0 0.00 0.00 0.00 88 1015.4
20260906001931 21 317 3.2 8.0 0.00 0.00 0.00 88 1015.2
20260906001427 21 29 6.4 6.4 0.00 0.00 0.00 89 1015.3
20260906000917 21 15 3.2 4.8 0.00 0.00 0.00 89 1015.3
20260906000412 21 1 4.8 6.4 0.00 0.00 0.00 89 1015.3
20260905235907 21 9 3.2 9.7 0.00 0.00 0.00 89 1015.4
20260905235407 21 308 0.0 8.0 0.00 0.00 0.00 89 1015.2
20260905234902 21 351 4.8 11.3 0.00 0.00 0.00 89 1015.1
20260905234357 21 118 3.2 6.4 0.00 0.00 0.00 88 1015.2
20260905233852 22 275 3.2 14.5 0.00 0.00 0.00 88 1015.3
20260905233347 22 351 6.4 8.0 0.00 0.00 0.00 88 1015.1
20260905232846 22 344 4.8 8.0 0.00 0.00 0.00 88 1015.3
20260905232343 22 345 4.8 11.3 0.00 0.00 0.00 87 1015.0
20260905231838 22 351 3.2 6.4 0.00 0.00 0.00 86 1015.4
20260905231338 23 341 4.8 9.7 0.00 0.00 0.00 85 1014.9
20260905230835 23 337 4.8 8.0 0.00 0.00 0.00 85 1014.9
20260905230333 23 338 4.8 9.7 0.00 0.00 0.00 84 1014.9
20260905225832 23 14 4.8 8.0 0.00 0.00 0.00 83 1014.9
20260905225328 24 7 6.4 9.7 0.00 0.00 0.00 82 1014.8
20260905224827 24 352 1.6 6.4 0.00 0.00 0.00 83 1015.0
20260905224323 24 353 3.2 4.8 0.00 0.00 0.00 83 1014.8
20260905223818 24 352 4.8 6.4 0.00 0.00 0.00 83 1014.4
20260905223316 25 9 3.2 8.0 0.00 0.00 0.00 82 1014.5
20260905222811 25 64 3.2 12.9 0.00 0.00 0.00 80 1014.6
20260905222309 25 358 6.4 11.3 0.00 0.00 0.00 80 1014.4
20260905221805 25 6 4.8 6.4 0.00 0.00 0.00 80 1014.6
20260905221302 25 353 3.2 6.4 0.00 0.00 0.00 81 1014.6
20260905220757 25 18 6.4 11.3 0.00 0.00 0.00 81 1014.6
20260905220254 25 335 6.4 8.0 0.00 0.00 0.00 80 1014.5
20260905215753 26 353 6.4 9.7 0.00 0.00 0.00 79 1014.6
20260905215249 26 354 4.8 4.8 0.00 0.00 0.00 80 1014.6
20260905214744 26 41 1.6 6.4 0.00 0.00 0.00 81 1014.2
20260905214240 26 34 0.0 8.0 0.00 0.00 0.00 80 1014.2
20260905213735 26 318 4.8 6.4 0.00 0.00 0.00 80 1014.5
20260905213231 26 97 6.4 8.0 0.00 0.00 0.00 79 1014.2
20260905212726 26 15 4.8 6.4 0.00 0.00 0.00 79 1014.1
20260905212225 26 346 3.2 6.4 0.00 0.00 0.00 79 1014.2
20260905211720 26 343 3.2 4.8 0.00 0.00 0.00 77 1014.2
20260905211215 26 353 4.8 6.4 0.00 0.00 0.00 75 1014.1
20260905210712 26 349 6.4 8.0 0.00 0.00 0.00 75 1013.9
20260905210211 26 356 3.2 6.4 0.00 0.00 0.00 77 1014.0
20260905205711 26 357 3.2 3.2 0.00 0.00 0.00 78 1013.9
20260905205210 26 19 3.2 4.8 0.00 0.00 0.00 77 1014.0
20260905204710 26 12 3.2 4.8 0.00 0.00 0.00 76 1014.2
20260905204206 26 3 4.8 6.4 0.00 0.00 0.00 79 1014.4
20260905203700 26 341 4.8 9.7 0.00 0.00 0.00 77 1014.2
20260905203156 26 334 4.8 8.0 0.00 0.00 0.00 76 1014.3
20260905202651 26 34 3.2 4.8 0.00 0.00 0.00 78 1014.2
20260905202146 26 347 4.8 6.4 0.00 0.00 0.00 78 1014.2
20260905201642 26 345 4.8 9.7 0.00 0.00 0.00 78 1014.2
20260905201141 26 339 1.6 8.0 0.00 0.00 0.00 77 1014.2
20260905200637 26 325 3.2 6.4 0.00 0.00 0.00 79 1014.1
20260905200132 26 29 6.4 8.0 0.00 0.00 0.00 79 1014.2
20260905195625 26 21 4.8 6.4 0.00 0.00 0.00 80 1014.3
20260905195121 25 358 6.4 6.4 0.00 0.00 0.00 80 1014.4
20260905194621 26 332 6.4 9.7 0.00 0.00 0.00 80 1014.6
20260905194120 26 337 6.4 11.3 0.00 0.00 0.00 79 1014.4
20260905193615 26 336 0.0 6.4 0.00 0.00 0.00 80 1014.6
20260905193110 26 11 3.2 6.4 0.00 0.00 0.00 81 1014.7
20260905192606 25 103 0.0 6.4 0.00 0.00 0.00 83 1014.6
20260905192102 25 337 0.0 8.0 0.00 0.00 0.00 84 1014.7
20260905191600 25 67 3.2 9.7 0.00 0.00 0.00 84 1014.5
20260905191059 24 298 6.4 8.0 0.00 0.00 0.00 85 1014.8
20260905190557 24 341 3.2 6.4 0.00 0.00 0.00 86 1014.9
20260905190057 24 358 0.0 3.2 0.00 0.00 0.00 87 1014.8
20260905185556 24 329 3.2 6.4 0.00 0.00 0.00 87 1015.1
20260905185055 24 355 6.4 8.0 0.00 0.00 0.00 87 1014.9
20260905184550 24 346 1.6 6.4 0.00 0.00 0.00 86 1014.9
20260905184049 24 351 3.2 8.0 0.00 0.00 0.00 86 1014.9
20260905183549 24 347 3.2 6.4 0.00 0.00 0.00 85 1015.1
20260905183044 24 329 4.8 4.8 0.00 0.00 0.00 87 1014.8
20260905182538 24 356 3.2 6.4 0.00 0.00 0.00 86 1015.0
20260905182033 24 335 3.2 4.8 0.00 0.00 0.00 86 1015.0
20260905181527 24 26 3.2 3.2 0.00 0.00 0.00 87 1015.1
20260905181027 24 317 3.2 4.8 0.00 0.00 0.00 86 1015.0
20260905180521 24 355 6.4 6.4 0.00 0.00 0.00 87 1015.0
20260905180017 24 343 3.2 6.4 0.00 0.00 0.00 87 1014.9
20260905175516 24 7 6.4 8.0 0.00 0.00 0.00 87 1014.6
20260905175012 23 27 3.2 4.8 0.00 0.00 0.00 88 1014.9
20260905174507 23 283 1.6 6.4 0.00 0.00 0.00 88 1014.9
20260905174003 23 315 4.8 6.4 0.00 0.00 0.00 88 1014.8
20260905173459 23 18 3.2 4.8 0.00 0.00 0.00 88 1014.8
20260905172954 23 326 4.8 8.0 0.00 0.00 0.00 88 1014.9
20260905172452 23 322 4.8 8.0 0.00 0.00 0.00 88 1014.8
20260905171948 23 332 3.2 8.0 0.00 0.00 0.00 89 1014.8
20260905171444 23 354 3.2 6.4 0.00 0.00 0.00 89 1014.7
20260905170940 23 10 9.7 9.7 0.00 0.00 0.00 89 1014.8
20260905170436 23 295 6.4 8.0 0.00 0.00 0.00 89 1015.1
20260905165936 23 338 6.4 6.4 0.00 0.00 0.00 89 1015.1
20260905165431 23 335 6.4 8.0 0.00 0.00 0.00 88 1015.1
20260905164926 24 5 4.8 8.0 0.00 0.00 0.00 88 1014.9
20260905164426 24 326 3.2 6.4 0.00 0.00 0.00 88 1015.2
20260905163921 24 15 3.2 4.8 0.00 0.00 0.00 89 1015.0
20260905163417 24 348 3.2 11.3 0.00 0.00 0.00 88 1015.0
20260905162913 24 330 3.2 8.0 0.00 0.00 0.00 88 1014.8
20260905162408 24 345 4.8 6.4 0.00 0.00 0.00 89 1015.0
20260905161903 24 355 4.8 6.4 0.00 0.00 0.00 88 1015.0
20260905161401 24 336 4.8 6.4 0.00 0.00 0.00 88 1015.1
20260905160900 24 347 3.2 4.8 0.00 0.00 0.00 88 1015.1
20260905160354 24 336 4.8 4.8 0.00 0.00 0.00 89 1015.0
20260905155849 24 5 3.2 6.4 0.00 0.00 0.00 89 1014.8
20260905155348 24 312 4.8 8.0 0.00 0.00 0.00 89 1014.9
20260905154847 24 335 3.2 6.4 0.00 0.00 0.00 89 1014.5
20260905154343 24 316 6.4 12.9 0.00 0.00 0.00 88 1014.8
20260905153838 25 343 1.6 8.0 0.00 0.00 0.00 87 1014.7
20260905153335 25 315 1.6 4.8 0.00 0.00 0.00 88 1014.5
20260905152834 25 328 3.2 6.4 0.00 0.00 0.00 89 1014.5
20260905152334 25 326 4.8 8.0 0.00 0.00 0.00 89 1014.3
20260905151829 25 4 4.8 6.4 0.00 0.00 0.00 89 1014.4
20260905151325 25 332 3.2 6.4 0.00 0.00 0.00 89 1014.2
20260905150824 25 346 3.2 8.0 0.00 0.00 0.00 90 1014.4
20260905150319 25 324 3.2 8.0 0.00 0.00 0.00 89 1014.3
20260905145817 25 344 4.8 12.9 0.00 0.00 0.00 89 1014.2
20260905145316 24 19 3.2 8.0 0.00 0.00 0.00 92 1014.4
20260905144815 23 0 3.2 4.8 0.00 0.00 0.00 95 1014.3
20260905144311 23 5 3.2 6.4 0.00 0.00 0.00 96 1014.4
20260905143809 23 359 3.2 6.4 0.00 0.00 0.00 96 1014.4
20260905143304 23 8 3.2 6.4 0.00 0.00 0.00 97 1014.1
20260905142803 22 7 4.8 6.4 0.00 0.00 0.00 98 1014.1
20260905142257 22 340 3.2 4.8 0.00 0.00 0.00 98 1014.3
20260905141753 22 337 3.2 6.4 0.00 0.00 0.00 99 1014.2
20260905141249 22 352 4.8 8.0 0.00 0.00 0.00 99 1014.3
20260905140745 22 326 4.8 9.7 0.00 0.00 0.00 99 1014.1
20260905140244 22 326 3.2 4.8 0.00 0.00 0.00 99 1014.1
20260905135743 22 324 4.8 9.7 0.00 0.00 0.00 99 1014.1
20260905135240 22 322 4.8 6.4 0.00 0.00 0.00 99 1013.9
20260905134739 22 12 3.2 4.8 0.00 0.00 0.00 99 1014.3
20260905134239 22 6 3.2 4.8 0.00 0.00 0.00 99 1014.0
20260905133733 22 343 4.8 6.4 0.00 0.00 0.00 99 1014.0
20260905133228 22 345 3.2 3.2 0.00 0.00 0.00 99 1013.9
20260905132727 22 339 3.2 3.2 0.00 0.00 0.00 99 1014.0
20260905132223 22 22 3.2 4.8 0.00 0.00 0.00 99 1014.1
20260905131718 22 336 3.2 4.8 0.00 0.00 0.00 99 1014.5
20260905131214 22 329 3.2 4.8 0.00 0.00 0.00 99 1014.6
20260905130708 22 320 3.2 3.2 0.00 0.00 0.00 99 1014.1
20260905130207 21 7 1.6 4.8 0.00 0.00 0.00 99 1013.8
20260905125702 21 13 3.2 3.2 0.00 0.00 0.00 99 1014.0
20260905125157 21 347 3.2 4.8 0.00 0.00 0.00 99 1013.9
20260905124654 21 341 3.2 4.8 0.00 0.00 0.00 99 1014.0
20260905124149 21 351 3.2 8.0 0.00 0.00 0.00 99 1013.8
20260905123644 21 353 1.6 4.8 0.00 0.00 0.00 99 1013.6
20260905123142 21 39 4.8 6.4 0.00 0.00 0.00 99 1013.5
20260905122641 21 322 3.2 4.8 0.00 0.00 0.00 99 1013.5
20260905122136 21 344 3.2 4.8 0.00 0.00 0.00 99 1013.4
20260905121631 21 339 3.2 3.2 0.00 0.00 0.00 99 1013.2
20260905121126 21 8 4.8 9.7 0.00 0.00 0.00 99 1013.2
20260905120625 21 348 8.0 8.0 0.00 0.00 0.00 99 1013.2
20260905120120 21 332 3.2 4.8 0.00 0.00 0.00 99 1013.0
20260905115619 21 353 0.0 3.2 0.00 0.00 0.00 99 1013.0
20260905115114 21 1 4.8 4.8 0.00 0.00 0.00 99 1013.2
20260905114614 21 6 4.8 4.8 0.00 0.00 0.00 99 1012.7
20260905114113 21 28 3.2 4.8 0.00 0.00 0.00 99 1012.8